Back to catalog

STARLINK-37220

AliveCommunicationsSSO
NORAD 68398·PAYLOAD·🇺🇸 United States

Launched Mar 26, 2026 from Vandenberg Space Force Base

Loading…

Next Passes (next 24 hours)

TLE

FreshSource: CelesTrak SupGP

Epoch: Sep 14, 2026, 23:17 UTC

1 68398C 26063U   26257.97062500 -.00031411  00000+0 -97481-3 0  2572
2 68398  97.2861  38.8927 0001228  97.3087 135.6634 15.33464197    15

Track STARLINK-37220 in real time with AllMySat

Download on the App Store